Location: Street
(51.1247°N, 2.7429°W)
Time: 15:01:31
(UTC+00:00)

SR - Pass Details

Date: 04 December 2020
Orbit: 575 x 880 km, 66.7° (Epoch: 26 January)

Event Time Altitude Azimuth Distance (km) Brightness Sun altitude
Rises 20:32:14 0° 288° (WNW) 2,950 ? -40.6°
Enters shadow 20:35:16 10° 310° (NW) 2,133 ? -41.1°
Reaches altitude 10° 20:35:25 10° 312° (NW) 2,102 - -41.1°
Maximum altitude 20:38:11 15° 347° (NNW) 1,837 - -41.5°
Drops below altitude 10° 20:41:04 10° 23° (NNE) 2,219 - -42.0°
Sets 20:44:35 0° 46° (NE) 3,217 - -42.5°
